Time,TemperatureF,DewpointF,PressureIn,WindDirection,WindDirectionDegrees,WindSpeedMPH,WindSpeedGustMPH,Humidity,HourlyPrecipIn,Conditions,Clouds,dailyrainin,SoftwareType,DateUTC
2013-04-07 00:00:00,27.5,13.0,30.25,WNW,282,0.0,0.0,54,0.00,,,0.00,Wunderground v.1.12,2013-04-07 04:00:00,
2013-04-07 00:01:00,27.5,12.2,30.25,WNW,282,0.0,0.0,52,0.00,,,0.00,Wunderground v.1.12,2013-04-07 04:01:00,
2013-04-07 00:03:00,28.2,14.1,30.25,WNW,293,0.0,2.0,55,0.00,,,0.00,Wunderground v.1.12,2013-04-07 04:03:00,
2013-04-07 00:05:00,27.3,10.6,30.25,WNW,282,0.0,0.0,49,0.00,,,0.00,Wunderground v.1.12,2013-04-07 04:05:00,
2013-04-07 00:11:00,27.2,9.6,30.25,WNW,282,0.0,0.0,47,0.00,,,0.00,Wunderground v.1.12,2013-04-07 04:11:00,
2013-04-07 00:16:00,27.2,10.1,30.25,WNW,282,0.0,0.0,48,0.00,,,0.00,Wunderground v.1.12,2013-04-07 04:16:00,
2013-04-07 00:22:00,27.2,8.6,30.25,WNW,282,0.0,0.0,45,0.00,,,0.00,Wunderground v.1.12,2013-04-07 04:22:00,
2013-04-07 00:29:00,27.3,11.5,30.25,WNW,282,0.0,0.0,51,0.00,,,0.00,Wunderground v.1.12,2013-04-07 04:29:00,
2013-04-07 00:34:00,27.2,11.0,30.25,WNW,282,0.0,0.0,50,0.00,,,0.00,Wunderground v.1.12,2013-04-07 04:34:00,
2013-04-07 00:39:00,27.2,11.9,30.25,WNW,282,0.0,0.0,52,0.00,,,0.00,Wunderground v.1.12,2013-04-07 04:39:00,
2013-04-07 00:45:00,27.2,11.4,30.25,WNW,282,0.0,0.0,51,0.00,,,0.00,Wunderground v.1.12,2013-04-07 04:45:00,
2013-04-07 00:51:00,27.3,13.2,30.25,WNW,282,0.0,0.0,55,0.00,,,0.00,Wunderground v.1.12,2013-04-07 04:51:00,
2013-04-07 00:56:00,27.2,12.7,30.25,WNW,282,0.0,0.0,54,0.00,,,0.00,Wunderground v.1.12,2013-04-07 04:56:00,
2013-04-07 01:01:00,27.0,14.6,30.25,WNW,282,0.0,0.0,59,0.00,,,0.00,Wunderground v.1.12,2013-04-07 05:01:00,
2013-04-07 01:07:00,27.2,15.5,30.25,WNW,282,0.0,0.0,61,0.00,,,0.00,Wunderground v.1.12,2013-04-07 05:07:00,
2013-04-07 01:14:00,26.9,14.9,30.25,WNW,282,0.0,0.0,60,0.00,,,0.00,Wunderground v.1.12,2013-04-07 05:14:00,
2013-04-07 01:19:00,26.4,14.8,30.24,WNW,282,0.0,0.0,61,0.00,,,0.00,Wunderground v.1.12,2013-04-07 05:19:00,
2013-04-07 01:25:00,26.4,14.4,30.24,WNW,282,0.0,0.0,60,0.00,,,0.00,Wunderground v.1.12,2013-04-07 05:25:00,
2013-04-07 01:30:00,26.3,14.7,30.24,WNW,282,0.0,0.0,61,0.00,,,0.00,Wunderground v.1.12,2013-04-07 05:30:00,
2013-04-07 01:37:00,26.1,14.8,30.24,WNW,282,0.0,0.0,62,0.00,,,0.00,Wunderground v.1.12,2013-04-07 05:37:00,
2013-04-07 01:42:00,26.1,14.5,30.24,WNW,282,0.0,0.0,61,0.00,,,0.00,Wunderground v.1.12,2013-04-07 05:42:00,
2013-04-07 01:47:00,26.0,14.8,30.23,WNW,282,0.0,0.0,62,0.00,,,0.00,Wunderground v.1.12,2013-04-07 05:47:00,
2013-04-07 01:55:00,25.7,14.1,30.23,WNW,282,0.0,0.0,61,0.00,,,0.00,Wunderground v.1.12,2013-04-07 05:55:00,
2013-04-07 02:01:00,25.6,14.0,30.23,WNW,282,0.0,0.0,61,0.00,,,0.00,Wunderground v.1.12,2013-04-07 06:01:00,
2013-04-07 02:07:00,25.6,14.0,30.23,WNW,282,0.0,0.0,61,0.00,,,0.00,Wunderground v.1.12,2013-04-07 06:07:00,
2013-04-07 02:13:00,25.6,14.7,30.23,WNW,282,0.0,0.0,63,0.00,,,0.00,Wunderground v.1.12,2013-04-07 06:13:00,
2013-04-07 02:20:00,25.6,13.6,30.23,WNW,282,0.0,0.0,60,0.00,,,0.00,Wunderground v.1.12,2013-04-07 06:20:00,
2013-04-07 02:26:00,25.6,14.4,30.23,WNW,282,0.0,0.0,62,0.00,,,0.00,Wunderground v.1.12,2013-04-07 06:26:00,
2013-04-07 02:32:00,25.6,14.4,30.22,WNW,282,0.0,0.0,62,0.00,,,0.00,Wunderground v.1.12,2013-04-07 06:32:00,
2013-04-07 02:37:00,25.8,14.9,30.22,WNW,282,0.0,0.0,63,0.00,,,0.00,Wunderground v.1.12,2013-04-07 06:37:00,
2013-04-07 02:44:00,26.1,15.9,30.22,WNW,282,0.0,0.0,65,0.00,,,0.00,Wunderground v.1.12,2013-04-07 06:44:00,
2013-04-07 02:50:00,26.1,16.3,30.22,WNW,282,0.0,0.0,66,0.00,,,0.00,Wunderground v.1.12,2013-04-07 06:50:00,
2013-04-07 02:55:00,26.1,16.3,30.22,WNW,282,0.0,0.0,66,0.00,,,0.00,Wunderground v.1.12,2013-04-07 06:55:00,
2013-04-07 03:01:00,25.8,15.6,30.20,WNW,282,0.0,0.0,65,0.00,,,0.00,Wunderground v.1.12,2013-04-07 07:01:00,
2013-04-07 03:07:00,25.7,15.2,30.20,WNW,282,0.0,0.0,64,0.00,,,0.00,Wunderground v.1.12,2013-04-07 07:07:00,
2013-04-07 03:12:00,25.6,15.1,30.20,WNW,282,0.0,0.0,64,0.00,,,0.00,Wunderground v.1.12,2013-04-07 07:12:00,
2013-04-07 03:18:00,25.1,15.0,30.20,WNW,282,0.0,0.0,65,0.00,,,0.00,Wunderground v.1.12,2013-04-07 07:18:00,
2013-04-07 03:24:00,24.8,14.7,30.20,WNW,282,0.0,0.0,65,0.00,,,0.00,Wunderground v.1.12,2013-04-07 07:24:00,
2013-04-07 03:29:00,24.5,15.1,30.20,WNW,282,0.0,0.0,67,0.00,,,0.00,Wunderground v.1.12,2013-04-07 07:29:00,
2013-04-07 03:35:00,24.4,15.0,30.20,WNW,282,0.0,0.0,67,0.00,,,0.00,Wunderground v.1.12,2013-04-07 07:35:00,
2013-04-07 03:40:00,24.4,15.0,30.20,WNW,282,0.0,0.0,67,0.00,,,0.00,Wunderground v.1.12,2013-04-07 07:40:00,
2013-04-07 03:45:00,24.2,14.5,30.20,WNW,282,0.0,0.0,66,0.00,,,0.00,Wunderground v.1.12,2013-04-07 07:45:00,
2013-04-07 03:52:00,24.5,14.8,30.20,WNW,282,0.0,0.0,66,0.00,,,0.00,Wunderground v.1.12,2013-04-07 07:52:00,
2013-04-07 03:57:00,24.8,15.4,30.20,WNW,282,0.0,0.0,67,0.00,,,0.00,Wunderground v.1.12,2013-04-07 07:57:00,
2013-04-07 04:02:00,24.8,15.0,30.20,WNW,282,0.0,0.0,66,0.00,,,0.00,Wunderground v.1.12,2013-04-07 08:02:00,
2013-04-07 04:08:00,24.7,14.9,30.20,WNW,282,0.0,0.0,66,0.00,,,0.00,Wunderground v.1.12,2013-04-07 08:08:00,
2013-04-07 04:14:00,24.7,15.3,30.20,WNW,282,0.0,0.0,67,0.00,,,0.00,Wunderground v.1.12,2013-04-07 08:14:00,
2013-04-07 04:20:00,24.7,15.3,30.19,WNW,282,0.0,0.0,67,0.00,,,0.00,Wunderground v.1.12,2013-04-07 08:20:00,
2013-04-07 04:25:00,24.5,15.1,30.19,WNW,282,0.0,0.0,67,0.00,,,0.00,Wunderground v.1.12,2013-04-07 08:25:00,
2013-04-07 04:30:00,24.4,15.0,30.19,WNW,282,0.0,0.0,67,0.00,,,0.00,Wunderground v.1.12,2013-04-07 08:30:00,
2013-04-07 04:35:00,24.2,15.8,30.19,WNW,282,0.0,0.0,70,0.00,,,0.00,Wunderground v.1.12,2013-04-07 08:35:00,
2013-04-07 04:41:00,24.1,16.1,30.19,WNW,282,0.0,0.0,71,0.00,,,0.00,Wunderground v.1.12,2013-04-07 08:41:00,
2013-04-07 04:47:00,23.9,16.2,30.20,WNW,282,0.0,0.0,72,0.00,,,0.00,Wunderground v.1.12,2013-04-07 08:47:00,
2013-04-07 04:53:00,23.8,16.1,30.20,WNW,282,0.0,0.0,72,0.00,,,0.00,Wunderground v.1.12,2013-04-07 08:53:00,
2013-04-07 04:58:00,23.8,16.1,30.20,WNW,282,0.0,0.0,72,0.00,,,0.00,Wunderground v.1.12,2013-04-07 08:58:00,
2013-04-07 05:03:00,23.8,16.1,30.20,WNW,282,0.0,0.0,72,0.00,,,0.00,Wunderground v.1.12,2013-04-07 09:03:00,
2013-04-07 05:10:00,23.8,16.1,30.20,WNW,282,0.0,0.0,72,0.00,,,0.00,Wunderground v.1.12,2013-04-07 09:10:00,
2013-04-07 05:16:00,23.9,15.9,30.20,WNW,282,0.0,0.0,71,0.00,,,0.00,Wunderground v.1.12,2013-04-07 09:16:00,
2013-04-07 05:22:00,23.9,15.9,30.20,WNW,282,0.0,0.0,71,0.00,,,0.00,Wunderground v.1.12,2013-04-07 09:22:00,
2013-04-07 05:28:00,24.1,16.1,30.20,WNW,282,0.0,0.0,71,0.00,,,0.00,Wunderground v.1.12,2013-04-07 09:28:00,
2013-04-07 05:33:00,24.4,16.3,30.20,WNW,282,0.0,0.0,71,0.00,,,0.00,Wunderground v.1.12,2013-04-07 09:33:00,
2013-04-07 05:38:00,24.2,16.1,30.20,WNW,282,0.0,0.0,71,0.00,,,0.00,Wunderground v.1.12,2013-04-07 09:38:00,
2013-04-07 05:44:00,23.8,16.7,30.20,WNW,282,0.0,0.0,74,0.00,,,0.00,Wunderground v.1.12,2013-04-07 09:44:00,
2013-04-07 05:49:00,23.3,15.9,30.20,WNW,282,0.0,0.0,73,0.00,,,0.00,Wunderground v.1.12,2013-04-07 09:49:00,
2013-04-07 05:55:00,23.3,15.9,30.20,WNW,282,0.0,0.0,73,0.00,,,0.00,Wunderground v.1.12,2013-04-07 09:55:00,
2013-04-07 06:01:00,23.5,16.1,30.20,WNW,282,0.0,0.0,73,0.00,,,0.00,Wunderground v.1.12,2013-04-07 10:01:00,
2013-04-07 06:06:00,23.5,16.1,30.20,WNW,282,0.0,0.0,73,0.00,,,0.00,Wunderground v.1.12,2013-04-07 10:06:00,
2013-04-07 06:12:00,23.6,16.2,30.20,WNW,282,0.0,0.0,73,0.00,,,0.00,Wunderground v.1.12,2013-04-07 10:12:00,
2013-04-07 06:17:00,23.8,16.4,30.20,WNW,282,0.0,0.0,73,0.00,,,0.00,Wunderground v.1.12,2013-04-07 10:17:00,
2013-04-07 06:24:00,23.8,16.1,30.20,WNW,282,0.0,0.0,72,0.00,,,0.00,Wunderground v.1.12,2013-04-07 10:24:00,
2013-04-07 06:29:00,23.8,16.1,30.21,WNW,282,0.0,0.0,72,0.00,,,0.00,Wunderground v.1.12,2013-04-07 10:29:00,
2013-04-07 06:35:00,23.9,16.2,30.21,WNW,282,0.0,0.0,72,0.00,,,0.00,Wunderground v.1.12,2013-04-07 10:35:00,
2013-04-07 06:40:00,23.9,16.2,30.21,WNW,282,0.0,0.0,72,0.00,,,0.00,Wunderground v.1.12,2013-04-07 10:40:00,
2013-04-07 06:45:00,24.1,16.4,30.22,WNW,282,0.0,0.0,72,0.00,,,0.00,Wunderground v.1.12,2013-04-07 10:45:00,
2013-04-07 06:50:00,24.1,16.1,30.22,WNW,282,0.0,0.0,71,0.00,,,0.00,Wunderground v.1.12,2013-04-07 10:50:00,
2013-04-07 06:55:00,24.4,16.0,30.22,WNW,282,0.0,0.0,70,0.00,,,0.00,Wunderground v.1.12,2013-04-07 10:55:00,
2013-04-07 07:01:00,24.7,16.0,30.22,WNW,282,0.0,0.0,69,0.00,,,0.00,Wunderground v.1.12,2013-04-07 11:01:00,
2013-04-07 07:06:00,25.0,17.2,30.22,WNW,282,0.0,0.0,72,0.00,,,0.00,Wunderground v.1.12,2013-04-07 11:06:00,
2013-04-07 07:12:00,25.0,16.9,30.22,WNW,282,0.0,0.0,71,0.00,,,0.00,Wunderground v.1.12,2013-04-07 11:12:00,
2013-04-07 07:17:00,25.3,16.9,30.22,WNW,282,0.0,0.0,70,0.00,,,0.00,Wunderground v.1.12,2013-04-07 11:17:00,
2013-04-07 07:23:00,25.7,16.9,30.22,WNW,282,0.0,0.0,69,0.00,,,0.00,Wunderground v.1.12,2013-04-07 11:23:00,
2013-04-07 07:29:00,26.1,17.3,30.23,WNW,282,0.0,0.0,69,0.00,,,0.00,Wunderground v.1.12,2013-04-07 11:29:00,
2013-04-07 07:35:00,26.4,17.6,30.23,WNW,282,0.0,0.0,69,0.00,,,0.00,Wunderground v.1.12,2013-04-07 11:35:00,
2013-04-07 07:40:00,26.9,18.4,30.23,WNW,282,0.0,0.0,70,0.00,,,0.00,Wunderground v.1.12,2013-04-07 11:40:00,
2013-04-07 07:47:00,27.6,19.1,30.23,WNW,282,0.0,0.0,70,0.00,,,0.00,Wunderground v.1.12,2013-04-07 11:47:00,
2013-04-07 07:54:00,28.5,19.6,30.23,WNW,282,0.0,0.0,69,0.00,,,0.00,Wunderground v.1.12,2013-04-07 11:54:00,
2013-04-07 08:00:00,29.3,20.0,30.23,WNW,282,0.0,0.0,68,0.00,,,0.00,Wunderground v.1.12,2013-04-07 12:00:00,
2013-04-07 08:06:00,29.7,20.4,30.23,WNW,282,0.0,0.0,68,0.00,,,0.00,Wunderground v.1.12,2013-04-07 12:06:00,
2013-04-07 08:11:00,30.4,21.4,30.23,WNW,282,0.0,0.0,69,0.00,,,0.00,Wunderground v.1.12,2013-04-07 12:11:00,
2013-04-07 08:19:00,32.4,23.7,30.23,WNW,282,0.0,0.0,70,0.00,,,0.00,Wunderground v.1.12,2013-04-07 12:19:00,
2013-04-07 08:24:00,33.1,24.4,30.23,WNW,282,0.0,2.0,70,0.00,,,0.00,Wunderground v.1.12,2013-04-07 12:24:00,
2013-04-07 08:30:00,34.3,25.9,30.23,WNW,282,0.0,0.0,71,0.00,,,0.00,Wunderground v.1.12,2013-04-07 12:30:00,
2013-04-07 08:35:00,35.3,26.5,30.23,WNW,282,0.0,0.0,70,0.00,,,0.00,Wunderground v.1.12,2013-04-07 12:35:00,
2013-04-07 08:40:00,36.5,26.9,30.23,WNW,282,0.0,0.0,68,0.00,,,0.00,Wunderground v.1.12,2013-04-07 12:40:00,
2013-04-07 08:45:00,37.6,26.9,30.22,WNW,282,0.0,0.0,65,0.00,,,0.00,Wunderground v.1.12,2013-04-07 12:45:00,
2013-04-07 08:50:00,38.6,26.3,30.22,West,281,1.0,3.0,61,0.00,,,0.00,Wunderground v.1.12,2013-04-07 12:50:00,
2013-04-07 08:57:00,39.8,25.4,30.22,West,267,1.0,4.0,56,0.00,,,0.00,Wunderground v.1.12,2013-04-07 12:57:00,
2013-04-07 09:04:00,34.4,26.0,30.23,WNW,293,0.0,3.0,71,0.00,,,0.00,Wunderground v.1.12,2013-04-07 13:04:00,
2013-04-07 09:10:00,41.6,25.3,30.21,SSW,194,1.0,2.0,52,0.00,,,0.00,Wunderground v.1.12,2013-04-07 13:10:00,
2013-04-07 09:16:00,42.2,24.9,30.20,SW,225,2.0,4.0,50,0.00,,,0.00,Wunderground v.1.12,2013-04-07 13:16:00,
2013-04-07 09:22:00,42.6,25.2,30.20,South,176,3.0,4.0,50,0.00,,,0.00,Wunderground v.1.12,2013-04-07 13:22:00,
2013-04-07 09:28:00,43.1,24.2,30.20,South,184,3.0,8.0,47,0.00,,,0.00,Wunderground v.1.12,2013-04-07 13:28:00,
2013-04-07 09:33:00,40.1,25.2,30.21,West,270,1.0,9.0,55,0.00,,,0.00,Wunderground v.1.12,2013-04-07 13:33:00,
2013-04-07 09:39:00,43.6,24.7,30.20,South,173,2.0,4.0,47,0.00,,,0.00,Wunderground v.1.12,2013-04-07 13:39:00,
2013-04-07 09:44:00,44.2,25.2,30.19,SSE,165,1.0,2.0,47,0.00,,,0.00,Wunderground v.1.12,2013-04-07 13:44:00,
2013-04-07 09:50:00,44.1,26.6,30.19,South,180,2.0,2.0,50,0.00,,,0.00,Wunderground v.1.12,2013-04-07 13:50:00,
2013-04-07 09:56:00,44.5,25.0,30.19,East,84,2.0,2.0,46,0.00,,,0.00,Wunderground v.1.12,2013-04-07 13:56:00,
2013-04-07 10:02:00,45.2,24.0,30.18,SSE,148,1.0,3.0,43,0.00,,,0.00,Wunderground v.1.12,2013-04-07 14:02:00,
2013-04-07 10:08:00,45.1,23.3,30.18,South,184,2.0,5.0,42,0.00,,,0.00,Wunderground v.1.12,2013-04-07 14:08:00,
2013-04-07 10:14:00,45.7,22.7,30.17,South,184,1.0,1.0,40,0.00,,,0.00,Wunderground v.1.12,2013-04-07 14:14:00,
2013-04-07 10:20:00,46.4,22.8,30.17,South,190,2.0,3.0,39,0.00,,,0.00,Wunderground v.1.12,2013-04-07 14:20:00,
2013-04-07 10:26:00,47.4,18.2,30.17,SW,236,2.0,4.0,31,0.00,,,0.00,Wunderground v.1.12,2013-04-07 14:26:00,
2013-04-07 10:32:00,47.9,15.5,30.16,South,186,4.0,11.0,27,0.00,,,0.00,Wunderground v.1.12,2013-04-07 14:32:00,
2013-04-07 10:38:00,48.5,16.0,30.16,SW,230,4.0,7.0,27,0.00,,,0.00,Wunderground v.1.12,2013-04-07 14:38:00,
2013-04-07 10:44:00,48.6,16.1,30.16,South,190,5.0,7.0,27,0.00,,,0.00,Wunderground v.1.12,2013-04-07 14:44:00,
2013-04-07 10:49:00,48.3,15.8,30.15,WSW,244,5.0,7.0,27,0.00,,,0.00,Wunderground v.1.12,2013-04-07 14:49:00,
2013-04-07 10:55:00,48.5,16.8,30.15,South,190,4.0,4.0,28,0.00,,,0.00,Wunderground v.1.12,2013-04-07 14:55:00,
2013-04-07 11:00:00,49.1,15.6,30.14,SSW,196,3.0,8.0,26,0.00,,,0.00,Wunderground v.1.12,2013-04-07 15:00:00,
2013-04-07 11:05:00,48.9,17.2,30.14,South,188,3.0,9.0,28,0.00,,,0.00,Wunderground v.1.12,2013-04-07 15:05:00,
2013-04-07 11:10:00,49.1,23.9,30.14,SSE,149,3.0,13.0,37,0.00,,,0.00,Wunderground v.1.12,2013-04-07 15:10:00,
2013-04-07 11:16:00,48.3,25.7,30.14,ENE,76,4.0,5.0,41,0.00,,,0.00,Wunderground v.1.12,2013-04-07 15:16:00,
2013-04-07 11:22:00,47.6,25.0,30.14,SW,225,4.0,5.0,41,0.00,,,0.00,Wunderground v.1.12,2013-04-07 15:22:00,
2013-04-07 11:29:00,47.9,26.5,30.14,SE,142,4.0,6.0,43,0.00,,,0.00,Wunderground v.1.12,2013-04-07 15:29:00,
2013-04-07 11:34:00,48.0,26.0,30.12,East,84,4.0,6.0,42,0.00,,,0.00,Wunderground v.1.12,2013-04-07 15:34:00,
2013-04-07 11:39:00,47.9,25.9,30.12,SSE,156,3.0,4.0,42,0.00,,,0.00,Wunderground v.1.12,2013-04-07 15:39:00,
2013-04-07 11:44:00,47.4,26.6,30.11,ENE,71,3.0,3.0,44,0.00,,,0.00,Wunderground v.1.12,2013-04-07 15:44:00,
2013-04-07 11:50:00,47.1,26.3,30.11,South,172,3.0,4.0,44,0.00,,,0.00,Wunderground v.1.12,2013-04-07 15:50:00,
2013-04-07 11:56:00,47.0,26.2,30.11,South,171,3.0,3.0,44,0.00,,,0.00,Wunderground v.1.12,2013-04-07 15:56:00,
2013-04-07 12:02:00,46.8,26.0,30.10,South,169,3.0,5.0,44,0.00,,,0.00,Wunderground v.1.12,2013-04-07 16:02:00,
2013-04-07 12:11:00,46.8,25.5,30.10,South,190,3.0,3.0,43,0.00,,,0.00,Wunderground v.1.12,2013-04-07 16:11:00,
2013-04-07 12:16:00,47.3,25.3,30.09,ESE,106,4.0,4.0,42,0.00,,,0.00,Wunderground v.1.12,2013-04-07 16:16:00,
2013-04-07 12:22:00,48.0,26.5,30.09,SE,140,4.0,4.0,43,0.00,,,0.00,Wunderground v.1.12,2013-04-07 16:22:00,
2013-04-07 12:29:00,49.4,28.9,30.09,East,82,4.0,7.0,45,0.00,,,0.00,Wunderground v.1.12,2013-04-07 16:29:00,
2013-04-07 12:34:00,46.8,26.0,30.10,East,90,3.0,13.0,44,0.00,,,0.00,Wunderground v.1.12,2013-04-07 16:34:00,
2013-04-07 12:39:00,49.1,29.7,30.08,SE,124,4.0,6.0,47,0.00,,,0.00,Wunderground v.1.12,2013-04-07 16:39:00,
2013-04-07 12:44:00,49.1,29.7,30.07,South,169,4.0,11.0,47,0.00,,,0.00,Wunderground v.1.12,2013-04-07 16:44:00,
2013-04-07 12:50:00,49.2,29.8,30.07,NE,42,5.0,5.0,47,0.00,,,0.00,Wunderground v.1.12,2013-04-07 16:50:00,
2013-04-07 12:56:00,49.8,29.8,30.07,East,95,4.0,6.0,46,0.00,,,0.00,Wunderground v.1.12,2013-04-07 16:56:00,
2013-04-07 13:01:00,49.6,29.6,30.06,East,81,4.0,6.0,46,0.00,,,0.00,Wunderground v.1.12,2013-04-07 17:01:00,
2013-04-07 13:06:00,48.9,29.5,30.06,NE,55,5.0,11.0,47,0.00,,,0.00,Wunderground v.1.12,2013-04-07 17:06:00,
2013-04-07 13:12:00,49.8,30.4,30.06,SSW,200,4.0,5.0,47,0.00,,,0.00,Wunderground v.1.12,2013-04-07 17:12:00,
2013-04-07 13:17:00,49.9,29.9,30.05,SSW,198,4.0,7.0,46,0.00,,,0.00,Wunderground v.1.12,2013-04-07 17:17:00,
2013-04-07 13:22:00,50.4,28.7,30.05,SSW,205,5.0,12.0,43,0.00,,,0.00,Wunderground v.1.12,2013-04-07 17:22:00,
2013-04-07 13:28:00,50.5,29.4,30.05,South,173,5.0,7.0,44,0.00,,,0.00,Wunderground v.1.12,2013-04-07 17:28:00,
2013-04-07 13:34:00,49.6,29.6,30.06,East,90,4.0,20.0,46,0.00,,,0.00,Wunderground v.1.12,2013-04-07 17:34:00,
2013-04-07 13:40:00,51.4,23.2,30.04,WNW,300,3.0,3.0,33,0.00,,,0.00,Wunderground v.1.12,2013-04-07 17:40:00,
2013-04-07 13:45:00,51.7,22.0,30.03,SSW,202,3.0,3.0,31,0.00,,,0.00,Wunderground v.1.12,2013-04-07 17:45:00,
2013-04-07 13:51:00,51.9,21.4,30.03,South,180,4.0,4.0,30,0.00,,,0.00,Wunderground v.1.12,2013-04-07 17:51:00,
2013-04-07 13:57:00,53.2,21.7,30.03,South,171,6.0,20.0,29,0.00,,,0.00,Wunderground v.1.12,2013-04-07 17:57:00,
2013-04-07 14:03:00,50.5,29.4,30.04,ESE,113,4.0,15.0,44,0.00,,,0.00,Wunderground v.1.12,2013-04-07 18:03:00,
2013-04-07 14:08:00,54.2,20.9,30.01,SW,231,4.0,7.0,27,0.00,,,0.00,Wunderground v.1.12,2013-04-07 18:08:00,
2013-04-07 14:14:00,54.4,22.8,30.01,South,175,4.0,6.0,29,0.00,,,0.00,Wunderground v.1.12,2013-04-07 18:14:00,
2013-04-07 14:20:00,53.6,22.9,30.01,South,177,6.0,12.0,30,0.00,,,0.00,Wunderground v.1.12,2013-04-07 18:20:00,
2013-04-07 14:25:00,54.1,24.1,30.01,WSW,252,4.0,4.0,31,0.00,,,0.00,Wunderground v.1.12,2013-04-07 18:25:00,
2013-04-07 14:31:00,54.1,23.3,30.00,SSE,163,3.0,4.0,30,0.00,,,0.00,Wunderground v.1.12,2013-04-07 18:31:00,
2013-04-07 14:36:00,53.5,22.8,30.00,SSW,192,4.0,14.0,30,0.00,,,0.00,Wunderground v.1.12,2013-04-07 18:36:00,
2013-04-07 14:42:00,53.8,23.8,30.00,South,177,5.0,6.0,31,0.00,,,0.00,Wunderground v.1.12,2013-04-07 18:42:00,
2013-04-07 14:47:00,54.2,23.4,29.99,South,179,5.0,15.0,30,0.00,,,0.00,Wunderground v.1.12,2013-04-07 18:47:00,
2013-04-07 14:52:00,54.8,22.3,29.99,West,265,6.0,7.0,28,0.00,,,0.00,Wunderground v.1.12,2013-04-07 18:52:00,
2013-04-07 15:00:00,54.8,23.1,29.98,South,178,6.0,6.0,29,0.00,,,0.00,Wunderground v.1.12,2013-04-07 19:00:00,
2013-04-07 15:06:00,54.7,23.8,29.98,NW,312,4.0,4.0,30,0.00,,,0.00,Wunderground v.1.12,2013-04-07 19:06:00,
2013-04-07 15:11:00,54.5,24.4,29.98,SE,139,3.0,4.0,31,0.00,,,0.00,Wunderground v.1.12,2013-04-07 19:11:00,
2013-04-07 15:16:00,53.9,23.9,29.97,West,269,5.0,11.0,31,0.00,,,0.00,Wunderground v.1.12,2013-04-07 19:16:00,
2013-04-07 15:22:00,54.2,26.4,29.97,SSE,166,5.0,14.0,34,0.00,,,0.00,Wunderground v.1.12,2013-04-07 19:22:00,
2013-04-07 15:28:00,54.5,24.4,29.97,South,190,3.0,5.0,31,0.00,,,0.00,Wunderground v.1.12,2013-04-07 19:28:00,
2013-04-07 15:33:00,54.8,23.1,29.98,South,180,5.0,23.0,29,0.00,,,0.00,Wunderground v.1.12,2013-04-07 19:33:00,
2013-04-07 15:38:00,54.2,25.7,29.96,ESE,123,4.0,6.0,33,0.00,,,0.00,Wunderground v.1.12,2013-04-07 19:38:00,
2013-04-07 15:44:00,55.4,26.7,29.95,SSW,212,4.0,10.0,33,0.00,,,0.00,Wunderground v.1.12,2013-04-07 19:44:00,
2013-04-07 15:50:00,55.4,26.0,29.95,SSE,147,4.0,4.0,32,0.00,,,0.00,Wunderground v.1.12,2013-04-07 19:50:00,
2013-04-07 15:56:00,55.9,27.9,29.95,SSE,164,5.0,5.0,34,0.00,,,0.00,Wunderground v.1.12,2013-04-07 19:56:00,
2013-04-07 16:01:00,55.4,28.2,29.95,SSE,152,5.0,10.0,35,0.00,,,0.00,Wunderground v.1.12,2013-04-07 20:01:00,
2013-04-07 16:06:00,55.6,29.0,29.95,South,185,6.0,12.0,36,0.00,,,0.00,Wunderground v.1.12,2013-04-07 20:06:00,
2013-04-07 16:12:00,55.1,29.9,29.95,SE,140,5.0,6.0,38,0.00,,,0.00,Wunderground v.1.12,2013-04-07 20:12:00,
2013-04-07 16:18:00,54.7,30.2,29.93,South,180,5.0,19.0,39,0.00,,,0.00,Wunderground v.1.12,2013-04-07 20:18:00,
2013-04-07 16:23:00,54.5,30.6,29.93,South,183,7.0,14.0,40,0.00,,,0.00,Wunderground v.1.12,2013-04-07 20:23:00,
2013-04-07 16:29:00,54.1,30.9,29.93,SSW,202,8.0,8.0,41,0.00,,,0.00,Wunderground v.1.12,2013-04-07 20:29:00,
2013-04-07 16:35:00,54.2,32.2,29.93,SW,229,6.0,6.0,43,0.00,,,0.00,Wunderground v.1.12,2013-04-07 20:35:00,
2013-04-07 16:41:00,54.1,32.1,29.93,SE,145,3.0,4.0,43,0.00,,,0.00,Wunderground v.1.12,2013-04-07 20:41:00,
2013-04-07 16:47:00,53.8,32.4,29.92,SE,140,4.0,4.0,44,0.00,,,0.00,Wunderground v.1.12,2013-04-07 20:47:00,
2013-04-07 16:53:00,53.1,31.7,29.92,SSE,166,7.0,9.0,44,0.00,,,0.00,Wunderground v.1.12,2013-04-07 20:53:00,
2013-04-07 17:00:00,52.6,32.4,29.91,South,169,6.0,6.0,46,0.00,,,0.00,Wunderground v.1.12,2013-04-07 21:00:00,
2013-04-07 17:06:00,52.0,32.4,29.91,SSE,168,7.0,7.0,47,0.00,,,0.00,Wunderground v.1.12,2013-04-07 21:06:00,
2013-04-07 17:11:00,51.9,33.3,29.91,SSE,165,6.0,11.0,49,0.00,,,0.00,Wunderground v.1.12,2013-04-07 21:11:00,
2013-04-07 17:16:00,51.6,33.6,29.90,SSE,167,5.0,5.0,50,0.00,,,0.00,Wunderground v.1.12,2013-04-07 21:16:00,
2013-04-07 17:21:00,51.6,34.0,29.90,South,169,5.0,11.0,51,0.00,,,0.00,Wunderground v.1.12,2013-04-07 21:21:00,
2013-04-07 17:27:00,51.4,33.9,29.90,SSE,158,5.0,5.0,51,0.00,,,0.00,Wunderground v.1.12,2013-04-07 21:27:00,
2013-04-07 17:33:00,52.6,32.4,29.92,South,180,5.0,20.0,46,0.00,,,0.00,Wunderground v.1.12,2013-04-07 21:33:00,
2013-04-07 17:39:00,51.3,34.3,29.89,WNW,301,5.0,15.0,52,0.00,,,0.00,Wunderground v.1.12,2013-04-07 21:39:00,
2013-04-07 17:44:00,51.4,34.3,29.89,WNW,291,4.0,4.0,52,0.00,,,0.00,Wunderground v.1.12,2013-04-07 21:44:00,
2013-04-07 17:52:00,51.3,34.3,29.91,SSW,194,5.0,7.0,52,0.00,,,0.00,Wunderground v.1.12,2013-04-07 21:52:00,
2013-04-07 17:58:00,51.3,34.3,29.91,SSW,209,5.0,11.0,52,0.00,,,0.00,Wunderground v.1.12,2013-04-07 21:58:00,
2013-04-07 18:03:00,51.4,33.9,29.89,South,180,6.0,24.0,51,0.00,,,0.00,Wunderground v.1.12,2013-04-07 22:03:00,
2013-04-07 18:09:00,51.4,33.9,29.91,SSE,163,4.0,5.0,51,0.00,,,0.00,Wunderground v.1.12,2013-04-07 22:09:00,
2013-04-07 18:15:00,51.4,33.9,29.92,West,265,4.0,4.0,51,0.00,,,0.00,Wunderground v.1.12,2013-04-07 22:15:00,
2013-04-07 18:23:00,51.3,34.7,29.92,SW,225,5.0,15.0,53,0.00,,,0.00,Wunderground v.1.12,2013-04-07 22:23:00,
2013-04-07 18:29:00,51.1,34.5,29.92,SSW,197,4.0,11.0,53,0.00,,,0.00,Wunderground v.1.12,2013-04-07 22:29:00,
2013-04-07 18:34:00,50.8,34.3,29.92,South,177,3.0,4.0,53,0.00,,,0.00,Wunderground v.1.12,2013-04-07 22:34:00,
2013-04-07 18:39:00,50.8,34.7,29.92,West,273,2.0,6.0,54,0.00,,,0.00,Wunderground v.1.12,2013-04-07 22:39:00,
2013-04-07 18:45:00,50.7,34.6,29.92,SSW,197,2.0,2.0,54,0.00,,,0.00,Wunderground v.1.12,2013-04-07 22:45:00,
2013-04-07 18:50:00,50.7,34.6,29.92,SSE,156,4.0,4.0,54,0.00,,,0.00,Wunderground v.1.12,2013-04-07 22:50:00,
2013-04-07 18:55:00,50.5,34.5,29.92,SSW,193,3.0,3.0,54,0.00,,,0.00,Wunderground v.1.12,2013-04-07 22:55:00,
2013-04-07 19:01:00,50.4,34.8,29.92,SSW,204,3.0,3.0,55,0.00,,,0.00,Wunderground v.1.12,2013-04-07 23:01:00,
2013-04-07 19:08:00,50.2,34.6,29.92,South,171,2.0,5.0,55,0.00,,,0.00,Wunderground v.1.12,2013-04-07 23:08:00,
2013-04-07 19:14:00,50.2,34.6,29.92,South,171,2.0,5.0,55,0.00,,,0.00,Wunderground v.1.12,2013-04-07 23:14:00,
2013-04-07 19:19:00,50.2,34.6,29.92,South,171,2.0,5.0,55,0.00,,,0.00,Wunderground v.1.12,2013-04-07 23:19:00,
2013-04-07 19:25:00,50.2,34.6,29.92,WSW,239,2.0,2.0,55,0.00,,,0.00,Wunderground v.1.12,2013-04-07 23:25:00,
2013-04-07 19:31:00,50.1,34.5,29.93,West,275,2.0,2.0,55,0.00,,,0.00,Wunderground v.1.12,2013-04-07 23:31:00,
2013-04-07 19:37:00,50.1,35.0,29.93,South,175,1.0,7.0,56,0.00,,,0.00,Wunderground v.1.12,2013-04-07 23:37:00,
2013-04-07 19:42:00,50.1,34.5,29.93,SSW,192,3.0,3.0,55,0.00,,,0.00,Wunderground v.1.12,2013-04-07 23:42:00,
2013-04-07 19:48:00,49.8,34.7,29.92,SW,219,3.0,3.0,56,0.00,,,0.00,Wunderground v.1.12,2013-04-07 23:48:00,
2013-04-07 19:53:00,49.6,34.5,29.92,SSW,206,2.0,2.0,56,0.00,,,0.00,Wunderground v.1.12,2013-04-07 23:53:00,
2013-04-07 19:59:00,49.5,34.9,29.92,SSW,211,3.0,3.0,57,0.00,,,0.00,Wunderground v.1.12,2013-04-07 23:59:00,
2013-04-07 20:04:00,49.4,34.8,29.92,SSW,199,2.0,2.0,57,0.00,,,0.00,Wunderground v.1.12,2013-04-08 00:04:00,
2013-04-07 20:10:00,49.1,34.9,29.92,SSE,159,2.0,2.0,58,0.00,,,0.00,Wunderground v.1.12,2013-04-08 00:10:00,
2013-04-07 20:15:00,48.6,34.9,29.93,SE,125,1.0,3.0,59,0.00,,,0.00,Wunderground v.1.12,2013-04-08 00:15:00,
2013-04-07 20:22:00,48.5,34.8,29.93,South,189,1.0,5.0,59,0.00,,,0.00,Wunderground v.1.12,2013-04-08 00:22:00,
2013-04-07 20:28:00,48.5,34.8,29.93,WSW,246,2.0,11.0,59,0.00,,,0.00,Wunderground v.1.12,2013-04-08 00:28:00,
2013-04-07 20:34:00,48.2,34.5,29.92,SSW,194,1.0,1.0,59,0.00,,,0.00,Wunderground v.1.12,2013-04-08 00:34:00,
2013-04-07 20:39:00,48.0,34.8,29.92,West,263,1.0,2.0,60,0.00,,,0.00,Wunderground v.1.12,2013-04-08 00:39:00,
2013-04-07 20:45:00,47.9,34.7,29.92,SW,236,2.0,2.0,60,0.00,,,0.00,Wunderground v.1.12,2013-04-08 00:45:00,
2013-04-07 20:50:00,47.6,34.8,29.92,SSW,200,1.0,2.0,61,0.00,,,0.00,Wunderground v.1.12,2013-04-08 00:50:00,
2013-04-07 20:55:00,47.4,35.0,29.92,SSE,166,1.0,1.0,62,0.00,,,0.00,Wunderground v.1.12,2013-04-08 00:55:00,
2013-04-07 21:00:00,47.4,35.0,29.93,SSE,163,1.0,1.0,62,0.00,,,0.00,Wunderground v.1.12,2013-04-08 01:00:00,
2013-04-07 21:06:00,47.3,35.3,29.93,ESE,117,1.0,1.0,63,0.00,,,0.00,Wunderground v.1.12,2013-04-08 01:06:00,
2013-04-07 21:11:00,47.1,35.1,29.93,South,180,1.0,5.0,63,0.00,,,0.00,Wunderground v.1.12,2013-04-08 01:11:00,
2013-04-07 21:16:00,47.0,35.4,29.93,SW,224,1.0,5.0,64,0.00,,,0.00,Wunderground v.1.12,2013-04-08 01:16:00,
2013-04-07 21:21:00,46.7,35.2,29.93,South,171,1.0,2.0,64,0.00,,,0.00,Wunderground v.1.12,2013-04-08 01:21:00,
2013-04-07 21:27:00,46.5,35.4,29.93,SSW,205,1.0,1.0,65,0.00,,,0.00,Wunderground v.1.12,2013-04-08 01:27:00,
2013-04-07 21:33:00,47.4,35.0,29.92,SSW,203,1.0,13.0,62,0.00,,,0.00,Wunderground v.1.12,2013-04-08 01:33:00,
2013-04-07 21:39:00,46.5,35.7,29.92,South,174,2.0,6.0,66,0.00,,,0.00,Wunderground v.1.12,2013-04-08 01:39:00,
2013-04-07 21:44:00,46.5,35.7,29.92,South,175,2.0,2.0,66,0.00,,,0.00,Wunderground v.1.12,2013-04-08 01:44:00,
2013-04-07 21:50:00,46.5,36.1,29.92,South,175,1.0,1.0,67,0.00,,,0.00,Wunderground v.1.12,2013-04-08 01:50:00,
2013-04-07 21:56:00,46.2,35.8,29.92,SSE,155,1.0,3.0,67,0.00,,,0.00,Wunderground v.1.12,2013-04-08 01:56:00,
2013-04-07 22:01:00,46.1,36.1,29.91,SW,234,1.0,1.0,68,0.00,,,0.00,Wunderground v.1.12,2013-04-08 02:01:00,
2013-04-07 22:06:00,46.1,36.1,29.91,South,183,1.0,2.0,68,0.00,,,0.00,Wunderground v.1.12,2013-04-08 02:06:00,
2013-04-07 22:11:00,46.1,36.1,29.91,SSE,161,2.0,2.0,68,0.00,,,0.00,Wunderground v.1.12,2013-04-08 02:11:00,
2013-04-07 22:17:00,46.0,36.4,29.91,South,174,1.0,2.0,69,0.00,,,0.00,Wunderground v.1.12,2013-04-08 02:17:00,
2013-04-07 22:23:00,45.7,36.5,29.91,SSW,198,1.0,1.0,70,0.00,,,0.00,Wunderground v.1.12,2013-04-08 02:23:00,
2013-04-07 22:30:00,45.5,36.6,29.90,SSE,156,0.0,1.0,71,0.00,,,0.00,Wunderground v.1.12,2013-04-08 02:30:00,
2013-04-07 22:35:00,45.5,36.6,29.90,WSW,247,1.0,1.0,71,0.00,,,0.00,Wunderground v.1.12,2013-04-08 02:35:00,
2013-04-07 22:40:00,45.7,36.8,29.90,SSW,195,1.0,1.0,71,0.00,,,0.00,Wunderground v.1.12,2013-04-08 02:40:00,
2013-04-07 22:46:00,45.7,36.8,29.90,South,175,1.0,1.0,71,0.00,,,0.00,Wunderground v.1.12,2013-04-08 02:46:00,
2013-04-07 22:52:00,46.0,37.1,29.90,South,175,2.0,3.0,71,0.00,,,0.00,Wunderground v.1.12,2013-04-08 02:52:00,
2013-04-07 22:58:00,46.0,37.1,29.90,SSW,204,2.0,2.0,71,0.00,,,0.00,Wunderground v.1.12,2013-04-08 02:58:00,
2013-04-07 23:03:00,45.5,36.3,29.90,South,180,1.0,11.0,70,0.00,,,0.00,Wunderground v.1.12,2013-04-08 03:03:00,
2013-04-07 23:08:00,46.0,37.1,29.90,SSW,195,1.0,1.0,71,0.00,,,0.00,Wunderground v.1.12,2013-04-08 03:08:00,
2013-04-07 23:13:00,46.0,37.1,29.90,SSE,157,2.0,3.0,71,0.00,,,0.00,Wunderground v.1.12,2013-04-08 03:13:00,
2013-04-07 23:20:00,46.1,37.2,29.90,South,173,2.0,6.0,71,0.00,,,0.00,Wunderground v.1.12,2013-04-08 03:20:00,
2013-04-07 23:25:00,46.2,37.7,29.90,SSW,211,2.0,2.0,72,0.00,,,0.00,Wunderground v.1.12,2013-04-08 03:25:00,
2013-04-07 23:30:00,46.1,37.6,29.89,South,189,1.0,2.0,72,0.00,,,0.00,Wunderground v.1.12,2013-04-08 03:30:00,
2013-04-07 23:36:00,46.2,37.7,29.89,West,261,2.0,2.0,72,0.00,,,0.00,Wunderground v.1.12,2013-04-08 03:36:00,
2013-04-07 23:41:00,46.1,37.6,29.89,WSW,244,2.0,3.0,72,0.00,,,0.00,Wunderground v.1.12,2013-04-08 03:41:00,
2013-04-07 23:46:00,46.1,37.9,29.89,West,262,2.0,4.0,73,0.00,,,0.00,Wunderground v.1.12,2013-04-08 03:46:00,
2013-04-07 23:52:00,46.2,38.0,29.89,SW,219,2.0,4.0,73,0.00,,,0.00,Wunderground v.1.12,2013-04-08 03:52:00,
2013-04-07 23:57:00,46.1,37.9,29.89,SW,220,2.0,7.0,73,0.00,,,0.00,Wunderground v.1.12,2013-04-08 03:57:00,